User: anonymous   Login
Location: Newark
(47.2794°N, 2.2100°W)
Time: 00:36:39
(UTC+00:00)
Language:

LightSail 2 - Orbit

View from above orbital plane
View from above orbital plane
View from above satellite
View from above satellite

Ground track
Ground track

The orbit data is extracted from the following two-line orbital elements,

1 44420U 19036AC  19339.16139572  .00003128  00000-0  67845-3 0  9999
2 44420  24.0074 259.9581 0024793 165.1509 194.9711 14.53811668 21844
Epoch (UTC): 05 December 2019 03:52:24
Eccentricity: 0.0024793
inclination: 24.0074°
perigee height: 695 km
apogee height: 731 km
right ascension of ascending node: 259.9581°
argument of perigee: 165.1509°
revolutions per day: 14.53811668
mean anomaly at epoch: 194.9711°
orbit number at epoch: 2184

The dashed part of the orbit path shows where the satellite is in the earth's shadow,  

DLR